(148) Gallia
ephemeris date magn radius delta ra dec elong phase
Today5 Sep 202613.73.206 AU3.452 AU15h25m+05°02'67.6°16.9°
Opposition30 Jul 202711.32.693 AU1.695 AU20h23m-05°36'166.7°5.0°
(148) Gallia - 2026-09-05
astro.vanbuitenen.nl


 
-1 year
-1 month
-1 day
Now
+1 day
+1 month
+1 year

The interactive orbit chart above shows the body's path through the solar system and its position at the given date. Green and blue lines are shown perpendicular to the ecliptic plane: Green if the path is above the ecliptic plane, blue if it is below. (Left-click and drag to rotate the view; Right-click and drag to move the view; Use scroll wheel to zoom in our out.)

The orbital elements of Gallia are:

            e (Eccentricity)                : 0.1877152
            a (Semimajor axis)              : 2.7705319
            i (Inclination)                 : 25.28913
            Ω (Longitude of ascending node) : 144.94966
            ω (Argument of perihelion)      : 252.40068
            M (Mean anomaly)                : 200.18055
            Epoch                           : 2026 Jun 09

            L (Longitude of perihelion)     : 215.61738
            B (Latitude of perihelion)      : -24.02853
            P (Orbital period in years)     : 4.61            
        

The light curve chart below shows the estimated development of the minor planet's magnitude.


The all-sky chart below shows the path of the minor planet over the same period as the light curve. The current position is marked yellow.





The following chart shows the path of the minor planet in the next few days. The field of view is optimized for (~10x50) binoculars and finderscopes.




Ephemerides:
Date       Time       RA (2000)    DEC (2000)    delta   radius  elong  phase   PA    magn
2026-09-05 00:00 UT   15 25 52.8   +05 02 48     3.452    3.206   67.6   16.9    96   13.7 
2026-09-05 13:54 UT   15 26 23.8   +04 57 14     3.459    3.206   67.2   16.9    95   13.7 
2026-09-06 00:00 UT   15 26 46.4   +04 53 12     3.463    3.205   66.9   16.8    95   13.7 
2026-09-07 00:00 UT   15 27 40.6   +04 43 39     3.474    3.204   66.3   16.7    95   13.7 
2026-09-08 00:00 UT   15 28 35.5   +04 34 07     3.484    3.203   65.7   16.7    94   13.7 
2026-09-09 00:00 UT   15 29 31.1   +04 24 37     3.495    3.202   65.0   16.6    94   13.7 
2026-09-10 00:00 UT   15 30 27.3   +04 15 10     3.505    3.202   64.4   16.5    94   13.7 
2026-09-11 00:00 UT   15 31 24.1   +04 05 44     3.516    3.201   63.7   16.4    93   13.7 
2026-09-12 00:00 UT   15 32 21.6   +03 56 21     3.526    3.200   63.1   16.3    93   13.7 
2026-09-13 00:00 UT   15 33 19.8   +03 47 00     3.537    3.199   62.5   16.2    93   13.7 
2026-09-14 00:00 UT   15 34 18.5   +03 37 42     3.547    3.198   61.9   16.1    92   13.7 
2026-09-15 00:00 UT   15 35 17.9   +03 28 26     3.557    3.197   61.2   16.0    92   13.7 
2026-09-16 00:00 UT   15 36 17.9   +03 19 12     3.567    3.196   60.6   15.9    91   13.7 
2026-09-17 00:00 UT   15 37 18.4   +03 10 01     3.577    3.195   60.0   15.8    91   13.7 
2026-09-18 00:00 UT   15 38 19.6   +03 00 53     3.587    3.194   59.4   15.7    91   13.7 
2026-09-19 00:00 UT   15 39 21.3   +02 51 47     3.597    3.193   58.7   15.6    90   13.7 
2026-09-20 00:00 UT   15 40 23.6   +02 42 44     3.606    3.192   58.1   15.5    90   13.7 
2026-09-21 00:00 UT   15 41 26.5   +02 33 44     3.616    3.191   57.5   15.4    89   13.7 
2026-09-22 00:00 UT   15 42 29.9   +02 24 46     3.626    3.190   56.9   15.3    89   13.7 
2026-09-23 00:00 UT   15 43 33.9   +02 15 52     3.635    3.189   56.3   15.2    89   13.7 
2026-09-24 00:00 UT   15 44 38.4   +02 07 00     3.645    3.188   55.6   15.1    88   13.7 
2026-09-25 00:00 UT   15 45 43.5   +01 58 12     3.654    3.187   55.0   14.9    88   13.7 
2026-09-26 00:00 UT   15 46 49.1   +01 49 26     3.663    3.186   54.4   14.8    87   13.7 
2026-09-27 00:00 UT   15 47 55.2   +01 40 43     3.672    3.185   53.8   14.7    87   13.7 
2026-09-28 00:00 UT   15 49 01.8   +01 32 04     3.681    3.184   53.2   14.6    87   13.7 
2026-09-29 00:00 UT   15 50 09.0   +01 23 28     3.690    3.183   52.6   14.5    86   13.7 
2026-09-30 00:00 UT   15 51 16.6   +01 14 55     3.699    3.182   52.0   14.4    86   13.7 
2026-10-01 00:00 UT   15 52 24.8   +01 06 25     3.708    3.181   51.4   14.2    85   13.7 
2026-10-02 00:00 UT   15 53 33.4   +00 57 58     3.717    3.180   50.8   14.1    85   13.7 
2026-10-03 00:00 UT   15 54 42.6   +00 49 35     3.725    3.179   50.2   14.0    84   13.7 


    Terminology:
            
    delta:  distance between minor planet and earth in AU
    radius: distance between minor planet and sun in AU
    magn:   magnitude (brightness) estimate    
    ra:     right ascension in hours (24h = 360deg)
    dec:    declination in degrees
    elong:  elongation in degrees (angle sun-earth-minor planet)    
    phase:  phase angle in degrees (angle sun-minor planet-earth)        
    AU:     Astronomical Unit (mean distance between earth and sun: 149597870.7 km
    

Orbital elements provided by the MPC (Minor Planet Center).
Calculations by a modified version of AAPlus, a C# implementation of the AA+ project by PJ Naughter from the algorithms presented in the book "Astronomical Algorithms" by Jean Meeus.
NGC2000 dso catalog and star labels from VizieR as provided by the Strasbourg astronomical Data Center.
Tycho2 catalog from the ESO archive.